Location: Bois de la Silve
(44.4667°N, 6.7833°E)
Time: 21:00:37
(UTC+00:00)

Cosmos 1833 Rocket - Pass Details

Date: 14 July 2020
Orbit: 832 x 840 km, 71.0° (Epoch: 14 August)

Event Time Altitude Azimuth Distance (km) Brightness Sun altitude
Exits shadow 02:26:28 17° 241° (WSW) 1,966 4.0 -13.6°
Maximum altitude 02:30:18 41° 303° (WNW) 1,201 3.4 -13.2°
Drops below altitude 10° 02:35:36 10° 13° (NNE) 2,453 6.1 -12.6°
Sets 02:38:12 0° 21° (NNE) 3,393 7.3 -12.3°
